Facebook Twitter

Wetterstation Klodzko

aktuelles Wetter
  Temperatur Wetter Niederschlag Luftdruck Wind
Sa, 02:00 Uhr 4° - 0.2 mm 1005 hPa 0 km/h
Sa, 01:00 Uhr 4° - - 1005 hPa 4 km/h SW
Sa, 00:00 Uhr 4° - - 1005 hPa 14 km/h SW
Fr, 23:00 Uhr 5° - - 1005 hPa 14 km/h SW
Fr, 22:00 Uhr 4° - 1005 hPa 7 km/h S
Fr, 21:00 Uhr 4° - 1005 hPa 7 km/h W
Fr, 20:00 Uhr 5° 0.1 mm 1005 hPa 0 km/h W
Fr, 19:00 Uhr 5° - 1005 hPa 11 km/h SW

Böen 40 km/h
Fr, 18:00 Uhr 6° - 1006 hPa 22 km/h SW

Böen 40 km/h
Fr, 17:00 Uhr 7° - 1005 hPa 18 km/h SW

Böen 47 km/h
Fr, 16:00 Uhr 7° - 1006 hPa 11 km/h S
Fr, 15:00 Uhr 5° - 1008 hPa 25 km/h W

Böen 47 km/h
Fr, 14:00 Uhr 6° 0.1 mm 1009 hPa 7 km/h W

Böen 54 km/h
Fr, 13:00 Uhr 5° - 1009 hPa 22 km/h SW

Böen 40 km/h
Fr, 12:00 Uhr 8° - 1010 hPa 22 km/h W
Fr, 11:00 Uhr 7° - 1011 hPa 11 km/h SW

Böen 36 km/h
Fr, 10:00 Uhr 6° - 1012 hPa 25 km/h W

Böen 36 km/h
Fr, 09:00 Uhr 5° - 1013 hPa 7 km/h S
Fr, 08:00 Uhr 2° 0.0 mm 1014 hPa 0 km/h S
Fr, 07:00 Uhr 0° - 1015 hPa 7 km/h O

Alle Zeitangaben MESZ